GSAT-18

Last updated on Sat Jul 05 2025 00:02:46 GMT+0000 (Coordinated Universal Time)

1 41793U 16060A 25185.50872525 -.00000063 00000+0 00000+0 0 9990 2 41793 0.0153 32.2013 0004849 39.1377 108.5288 1.00270744 32047
UTC large
Height (km)
Speed (km/s)
/
Latitude / Longitude
Inclination (degrees)
Orbital Period (minutes)
Azimuth
Elevation
Range (km)
Doppler Factor

Next 0 passes for location: London (51.5072 / 0.1276)

Sorry there are no passes over London.